Radioactive Concentration measured by Seawater Radiation Monitor near Fukushima Daiichi Nuclear Power Station
Date,Time,Cs137(Bq/L),Cs134(Bq/L),Total β(Bq/L)
2016/12/29,00:00,0.71,ND,ND
2016/12/29,00:10,0.63,0.034,12
2016/12/29,00:20,0.61,0.044,11
2016/12/29,00:30,0.59,0.045,11
2016/12/29,00:40,0.60,0.064,9.3
2016/12/29,00:50,0.58,0.072,9.2
2016/12/29,01:00,0.62,0.061,ND
2016/12/29,01:10,0.61,0.063,ND
2016/12/29,01:20,0.60,0.071,ND
2016/12/29,01:30,0.61,0.076,ND
2016/12/29,01:40,0.60,0.065,ND
2016/12/29,01:50,0.61,0.064,ND
2016/12/29,02:00,0.59,0.067,ND
2016/12/29,02:10,0.62,0.061,ND
2016/12/29,02:20,0.61,0.054,9.2
2016/12/29,02:30,0.60,0.050,ND
2016/12/29,02:40,0.61,0.065,ND
2016/12/29,02:50,0.61,0.059,ND
2016/12/29,03:00,0.60,0.054,ND
2016/12/29,03:10,0.59,0.058,ND
2016/12/29,03:20,0.58,0.059,ND
2016/12/29,03:30,0.59,0.059,ND
2016/12/29,03:40,0.59,0.056,ND
2016/12/29,03:50,0.57,0.056,ND
2016/12/29,04:00,0.57,0.059,ND
2016/12/29,04:10,0.58,0.061,ND
2016/12/29,04:20,0.59,0.057,ND
2016/12/29,04:30,0.57,0.060,ND
2016/12/29,04:40,0.58,0.052,ND
2016/12/29,04:50,0.64,0.032,ND
2016/12/29,05:00,0.61,0.030,ND
2016/12/29,05:10,0.51,0.050,ND
2016/12/29,05:20,0.57,ND,ND
2016/12/29,05:30,0.51,0.046,ND
2016/12/29,05:40,0.50,0.053,ND
2016/12/29,05:50,0.48,0.053,ND
2016/12/29,06:00,0.50,0.060,ND
2016/12/29,06:10,0.58,0.044,ND
2016/12/29,06:20,0.58,0.048,ND
2016/12/29,06:30,0.53,0.035,ND
2016/12/29,06:40,0.55,0.061,ND
2016/12/29,06:50,0.56,0.057,ND
2016/12/29,07:00,0.55,0.030,ND
2016/12/29,07:10,0.50,0.063,ND
2016/12/29,07:20,0.51,0.058,ND
2016/12/29,07:30,0.53,0.065,ND
2016/12/29,07:40,0.54,0.068,ND
2016/12/29,07:50,0.53,0.074,ND
2016/12/29,08:00,0.56,0.071,ND
2016/12/29,08:10,0.56,0.069,ND
2016/12/29,08:20,0.56,0.082,ND
2016/12/29,08:30,0.56,0.087,ND
2016/12/29,08:40,0.59,0.082,ND
2016/12/29,08:50,0.72,0.045,ND
2016/12/29,09:00,0.71,0.049,ND
2016/12/29,09:10,0.71,0.049,ND
2016/12/29,09:20,0.72,0.071,ND
2016/12/29,09:30,0.68,0.072,ND
2016/12/29,09:40,0.66,0.075,ND
2016/12/29,09:50,0.67,0.069,ND
2016/12/29,10:00,0.69,0.074,ND
2016/12/29,10:10,0.71,0.079,9.3
2016/12/29,10:20,0.70,0.073,9.2
2016/12/29,10:30,0.71,0.073,ND
2016/12/29,10:40,0.73,0.073,ND
2016/12/29,10:50,0.80,0.070,ND
2016/12/29,11:00,0.79,0.080,ND
2016/12/29,11:10,0.78,0.086,ND
2016/12/29,11:20,0.78,0.088,ND
2016/12/29,11:30,0.79,0.090,ND
2016/12/29,11:40,0.76,0.091,ND
2016/12/29,11:50,0.80,0.062,ND
2016/12/29,12:00,0.76,0.082,ND
2016/12/29,12:10,0.74,0.075,ND
2016/12/29,12:20,0.71,0.079,ND
2016/12/29,12:30,0.68,0.079,9.0
2016/12/29,12:40,0.71,0.071,10
2016/12/29,12:50,0.68,0.072,ND
2016/12/29,13:00,0.66,0.064,ND
2016/12/29,13:10,0.68,0.063,ND
2016/12/29,13:20,0.72,0.040,ND
2016/12/29,13:30,0.73,0.028,ND
2016/12/29,13:40,0.71,0.037,ND
2016/12/29,13:50,0.70,0.041,ND
2016/12/29,14:00,0.67,0.065,ND
2016/12/29,14:10,0.66,0.070,9.5
2016/12/29,14:20,0.65,0.071,11
2016/12/29,14:30,0.67,0.048,ND
2016/12/29,14:40,0.66,0.040,ND
2016/12/29,14:50,0.53,0.083,ND
2016/12/29,15:00,0.52,0.083,ND
2016/12/29,15:10,0.52,0.085,ND
2016/12/29,15:20,0.51,0.084,ND
2016/12/29,15:30,0.60,0.071,ND
2016/12/29,15:40,0.62,0.070,ND
2016/12/29,15:50,0.65,0.060,ND
2016/12/29,16:00,0.65,0.050,11
2016/12/29,16:10,0.65,0.048,ND
2016/12/29,16:20,0.63,0.048,ND
2016/12/29,16:30,0.61,0.069,ND
2016/12/29,16:40,0.64,0.041,10
2016/12/29,16:50,0.62,0.045,ND
2016/12/29,17:00,0.62,0.042,ND
2016/12/29,17:10,0.54,0.067,10
2016/12/29,17:20,0.67,0.030,9.3
2016/12/29,17:30,0.55,0.057,8.9
2016/12/29,17:40,0.64,0.047,ND
2016/12/29,17:50,0.62,0.053,12
2016/12/29,18:00,0.62,0.065,ND
2016/12/29,18:10,0.59,0.081,ND
2016/12/29,18:20,0.59,0.086,ND
2016/12/29,18:30,0.61,0.085,ND
2016/12/29,18:40,0.62,0.086,ND
2016/12/29,18:50,0.65,0.082,ND
2016/12/29,19:00,0.65,0.082,ND
2016/12/29,19:10,0.68,0.074,ND
2016/12/29,19:20,0.67,0.074,ND
2016/12/29,19:30,0.68,0.074,ND
2016/12/29,19:40,0.67,0.084,ND
2016/12/29,19:50,0.70,0.069,ND
2016/12/29,20:00,0.73,0.060,ND
2016/12/29,20:10,0.73,0.066,ND
2016/12/29,20:20,0.73,0.072,ND
2016/12/29,20:30,0.71,0.095,ND
2016/12/29,20:40,0.73,0.088,ND
2016/12/29,20:50,0.75,0.080,ND
2016/12/29,21:00,0.74,0.090,ND
2016/12/29,21:10,0.78,0.077,ND
2016/12/29,21:20,0.81,0.070,9.3
2016/12/29,21:30,0.80,0.083,ND
2016/12/29,21:40,0.86,0.059,ND
2016/12/29,21:50,0.86,0.060,ND
2016/12/29,22:00,0.88,0.060,ND
2016/12/29,22:10,0.76,0.12,ND
2016/12/29,22:20,0.77,0.12,ND
2016/12/29,22:30,0.90,0.074,ND
2016/12/29,22:40,0.90,0.094,ND
2016/12/29,22:50,0.85,0.10,12
2016/12/29,23:00,0.95,0.064,8.9
2016/12/29,23:10,0.92,0.068,10
2016/12/29,23:20,0.91,0.063,10
2016/12/29,23:30,0.90,0.066,8.8
2016/12/29,23:40,0.89,0.092,ND
2016/12/29,23:50,0.88,0.096,ND
